Probability
1 1 0 0 1 2 3 3 3 2 1 0 0 0 0 0 1 2 2 1 2 3 3 3 4 4 3 2 2 3 3 2 1 0 0 0 0 0 0 1 1 1 0
1 0 0 0 0 1 3 3 3 2 1 0 0 0 0 0 1 2 2 1 1 2 3 3 4 4 3 3 3 3 3 3 1 0 0 0 0 0 0 0 0 0 0
0 0 0 0 0 1 2 3 3 2 1 0 0 0 0 0 0 1 2 2 1 1 2 3 3 4 4 3 3 3 3 3 2 1 0 0 0 0 0 0 0 0 0
0 0 0 0 0 0 1 3 3 3 1 0 0 0 0 0 0 1 2 2 1 0 1 1 2 3 3 3 3 3 3 2 2 2 0 0 0 0 0 0 0 0 0
0 0 0 0 0 0 1 2 3 3 2 1 0 0 0 0 0 0 1 2 2 1 0 0 1 3 3 3 3 3 3 3 2 1 0 0 0 0 1 0 0 0 0
1 0 0 0 0 0 1 2 3 3 2 1 0 0 0 0 0 0 0 1 2 1 0 0 1 2 3 3 3 3 3 2 1 0 0 0 0 0 0 0 0 0 0
2 1 0 0 0 0 1 2 3 3 2 1 0 0 0 0 0 0 0 1 2 1 0 0 0 1 2 2 3 3 2 1 0 0 0 0 0 0 0 0 0 0 0
2 1 0 0 0 0 1 2 3 3 2 1 0 0 0 0 0 0 0 1 2 2 1 0 0 0 1 1 1 2 1 1 1 1 0 0 0 0 0 0 0 0 0
2 1 0 0 0 0 1 2 3 3 2 1 0 0 0 0 0 0 1 2 3 2 1 0 0 0 0 0 0 1 1 1 1 1 0 0 0 0 0 0 0 0 0
2 1 0 0 0 0 1 2 3 2 1 0 0 0 0 0 0 0 1 2 2 1 0 0 0 0 0 0 0 0 0 0 0 0 0 0 0 0 1 1 1 1 1
3 2 1 0 0 0 0 1 1 1 1 0 0 0 0 0 0 0 0 1 1 0 0 0 0 0 0 0 0 0 0 0 0 0 0 0 0 0 1 2 2 2 1
4 3 1 0 0 0 0 0 0 0 0 0 0 0 0 0 0 0 0 0 0 0 0 0 0 0 0 0 0 0 0 0 0 0 0 0 0 0 1 1 1 1 0
5 3 1 0 0 0 0 0 0 0 0 0 0 0 0 0 0 0 0 0 0 0 0 0 0 0 0 0 0 0 0 0 0 0 0 0 0 0 0 0 0 0 0
6 5 2 0 0 0 0 0 0 1 0 0 0 0 0 0 0 0 0 0 0 0 0 0 0 0 0 0 0 0 0 0 0 0 0 0 0 0 0 0 0 0 0
4 5 4 2 0 0 0 0 0 0 0 0 0 0 0 0 0 0 0 0 0 0 0 0 0 0 0 0 0 0 0 0 0 0 0 0 0 0 0 0 0 0 0
2 3 5 3 1 0 0 0 0 0 0 0 0 0 0 0 0 0 0 0 0 0 0 0 0 0 0 0 0 0 0 0 0 0 0 0 0 0 0 0 0 0 0
0 2 4 5 3 1 0 0 0 0 0 0 0 0 0 0 0 0 0 0 0 0 0 0 0 0 0 0 0 0 0 0 0 0 0 0 0 0 0 0 0 0 0
0 0 2 4 4 2 1 0 0 0 0 0 0 0 0 0 0 0 0 0 0 0 0 0 0 0 0 0 0 0 0 0 0 0 0 0 0 0 0 0 0 0 0
0 0 1 2 3 2 2 1 0 0 0 0 0 0 0 0 0 0 0 0 0 0 0 0 0 0 0 0 0 0 0 0 0 0 0 0 0 0 0 0 0 0 0
0 0 0 1 1 1 1 1 1 0 0 0 0 0 0 0 0 0 0 0 0 0 0 0 0 0 0 0 0 0 0 0 0 0 0 0 0 0 0 0 0 0 0
0 0 0 0 0 0 0 1 1 0 0 0 0 0 0 0 0 0 0 0 0 0 0 0 0 0 0 0 0 0 0 0 0 0 0 0 0 0 0 0 0 0 0
0 0 0 0 0 0 0 0 0 0 0 0 0 0 0 0 0 0 0 0 0 0 0 0 0 0 0 0 0 0 0 0 0 0 0 0 0 0 0 0 0 0 0
0 0 0 0 0 0 0 0 0 0 0 1 0 0 0 0 0 0 0 0 0 0 0 0 0 0 0 0 0 0 0 0 0 0 0 0 0 0 0 0 0 0 0
0 0 0 0 0 0 0 0 0 0 0 0 0 0 0 0 0 0 0 0 0 0 0 0 0 0 0 0 0 0 0 0 0 0 0 0 0 0 0 0 0 0 0
0 0 0 0 0 0 0 0 0 0 0 0 0 0 0 0 0 0 0 0 0 0 0 0 0 0 0 0 0 0 0 0 0 0 0 0 0 0 0 0 0 0 0
0 0 0 0 0 0 0 0 0 0 0 0 0 0 0 0 0 0 0 0 0 0 0 0 0 0 0 0 0 0 0 0 0 0 0 0 0 0 0 0 0 0 0
Wind_Speed
2 2 1 1 1 2 2 2 2 2 2 2 2 2 2 2 2 2 2 4 4 3 2 2 2 2 2 2 2 3 3 3 4 4 4 4 4 5 5 6 6 6 7
1 1 1 1 1 1 2 2 2 1 1 1 2 2 1 1 2 2 2 3 5 5 4 3 3 3 3 3 2 2 3 3 4 4 4 5 5 6 6 7 7 7 7
1 1 1 1 0 1 2 2 2 1 1 2 2 1 1 1 1 1 2 1 2 5 5 4 4 4 4 3 3 3 3 3 4 4 5 5 5 6 7 7 7 8 8
1 1 1 0 0 1 1 1 1 2 1 1 1 1 1 1 1 1 1 1 1 2 4 5 5 5 5 5 4 4 4 4 4 5 5 6 6 6 7 7 8 8 9
1 1 1 0 1 1 1 1 1 2 1 1 1 1 1 1 1 1 1 1 1 1 2 4 5 5 5 6 6 5 4 4 5 6 6 6 6 7 7 8 8 9 9
1 1 1 1 1 1 1 1 1 1 1 1 1 1 1 1 1 1 1 1 1 1 2 2 3 4 6 6 7 7 6 5 5 6 6 7 7 8 8 8 9 9 9
1 1 1 1 1 1 2 2 1 1 1 1 1 1 2 1 1 1 1 0 1 1 2 2 2 2 3 6 7 7 7 6 6 6 7 7 8 8 8 9 9 9 9
1 1 2 1 1 1 1 1 2 1 1 1 1 1 1 2 2 1 0 0 1 1 2 2 2 2 2 2 5 7 7 8 8 7 8 8 8 8 9 9 8 9 9
1 2 2 2 2 2 2 2 2 3 2 1 1 2 1 2 2 2 1 0 0 0 1 1 2 2 2 2 3 5 7 8 8 8 8 9 8 8 8 9 9 9 10
1 2 2 2 2 2 2 3 3 2 3 2 1 0 1 1 1 2 2 1 1 1 2 2 2 2 2 2 3 5 6 7 8 8 8 9 9 9 9 9 10 10 11
1 2 2 2 2 2 2 2 2 3 3 3 2 1 1 0 1 2 3 3 2 2 1 2 1 1 1 1 2 4 6 7 8 9 9 9 9 10 10 10 10 11 11
1 2 2 2 2 2 2 3 3 3 3 3 2 2 2 2 2 2 3 3 3 2 2 1 1 1 1 1 2 5 6 7 7 9 9 9 9 10 10 10 11 11 11
2 2 2 2 2 2 3 2 3 3 4 4 3 3 3 3 2 2 2 2 3 2 2 1 1 1 1 1 2 5 5 7 8 9 10 10 10 10 10 10 11 11 11
3 3 3 3 3 3 3 3 2 3 3 3 4 3 2 2 2 2 2 2 3 2 2 2 1 1 1 1 2 4 3 7 8 9 10 10 10 9 10 10 10 10 11
2 3 3 3 3 3 3 2 2 3 2 3 3 3 2 2 2 2 3 3 3 3 4 2 1 1 1 1 3 2 2 7 9 9 10 10 10 10 9 9 9 10 10
2 3 2 3 3 2 2 2 2 2 2 2 2 3 3 2 2 2 3 3 3 3 4 2 2 2 2 2 4 3 3 8 9 10 10 10 10 10 9 9 9 9 10
3 3 3 3 3 2 2 2 2 2 3 2 2 2 3 3 2 2 2 2 3 3 5 4 2 2 2 2 3 2 3 3 4 9 10 9 9 9 9 8 8 9 9
3 3 3 3 3 3 3 3 3 3 3 3 3 3 3 2 3 2 2 3 3 3 4 5 3 2 3 2 2 3 3 3 3 7 9 9 9 9 9 8 8 8 9
3 2 2 3 3 3 3 3 3 3 3 3 3 3 4 3 3 2 3 3 3 3 3 4 4 2 2 2 2 3 3 3 4 5 7 8 9 9 8 8 8 7 8
2 2 2 2 2 2 2 2 2 3 2 2 3 3 4 4 4 4 3 3 3 3 3 3 3 3 2 2 1 2 3 2 3 3 5 6 7 8 8 8 8 7 8
2 2 1 1 1 1 2 2 2 2 2 2 2 2 3 4 5 5 4 3 3 3 3 3 3 3 2 2 2 2 3 3 3 2 3 3 3 3 4 6 7 7 7
1 1 1 1 0 1 1 2 1 2 2 2 2 2 3 3 4 5 6 6 4 4 4 4 4 4 4 3 2 2 2 2 3 2 2 3 2 3 3 3 6 7 8
2 1 1 1 0 2 2 2 2 1 2 2 2 2 2 2 3 2 3 5 5 6 6 5 5 5 4 3 3 3 3 3 4 3 2 4 3 4 3 4 8 7 8
1 1 1 1 1 2 2 2 2 1 1 2 2 2 2 3 3 3 2 2 3 3 4 4 4 5 4 4 4 4 3 3 3 2 1 3 3 3 4 3 6 7 8
1 1 1 1 1 2 3 3 2 1 1 2 2 2 2 3 5 5 2 2 3 2 3 4 5 5 5 5 3 1 2 2 3 2 1 2 3 3 3 3 4 6 7
1 0 0 1 1 2 3 3 3 1 1 1 1 2 4 4 5 5 2 2 3 3 2 2 2 4 3 3 4 2 2 2 2 3 1 1 2 2 3 2 2 2 4
Wind_Direction
81 71 65 62 74 79 80 75 69 63 61 55 55 57 46 38 26 12 0 11 12 10 15 12 2 358 2 353 354 3 11 3 1 357 351 349 347 344 340 337 335 334 330
105 101 85 73 86 102 107 101 88 77 59 58 51 46 36 29 23 16 8 2 7 4 358 352 349 353 348 342 337 334 348 350 349 349 348 341 338 336 332 329 326 322 323
118 124 125 106 126 116 112 108 92 78 66 55 46 38 39 30 21 3 356 357 353 359 357 353 350 345 341 335 335 330 335 332 339 340 338 338 333 327 324 323 325 323 321
128 126 131 154 140 115 115 124 120 96 60 42 21 3 10 7 4 349 353 357 359 356 352 357 351 344 340 339 336 335 336 334 334 333 332 333 333 331 326 322 324 324 323
143 140 164 176 134 123 127 148 121 127 113 49 9 1 353 336 320 341 346 356 358 4 352 353 358 356 349 341 334 326 326 328 332 331 327 326 327 326 324 323 321 322 321
151 144 148 145 136 138 144 142 138 109 128 133 38 10 337 315 307 303 296 347 4 11 10 7 3 2 0 350 341 337 328 323 328 328 327 328 326 324 319 318 319 319 318
163 152 147 150 162 170 182 167 146 132 105 103 79 5 340 334 323 310 322 26 19 13 24 18 6 4 349 349 345 334 329 327 327 325 323 324 319 316 317 318 315 319 321
178 172 164 171 180 163 158 168 146 148 143 116 119 103 340 333 326 323 341 80 14 15 4 357 354 360 347 337 334 337 329 325 321 322 322 321 315 313 316 315 316 319 322
196 185 182 178 183 174 187 193 179 166 175 174 135 146 162 246 307 314 301 306 291 334 320 326 336 341 339 330 318 329 329 324 320 321 320 325 322 314 310 315 316 317 317
203 196 185 180 183 188 195 201 184 181 170 182 194 145 176 170 199 308 314 312 310 291 291 312 320 322 325 322 329 331 334 336 329 322 321 323 322 320 318 317 316 317 316
212 206 191 186 193 199 202 205 194 186 185 183 180 176 160 168 194 213 278 305 317 293 279 279 279 286 302 315 317 329 335 338 337 329 321 319 318 318 320 320 318 313 312
221 221 202 198 206 208 204 203 198 196 196 194 193 186 180 182 196 209 248 274 289 296 303 282 264 256 265 296 313 334 336 337 335 331 323 318 318 316 316 317 316 314 312
219 226 215 211 213 215 205 197 196 209 205 199 203 210 204 204 200 209 239 269 281 293 298 287 264 256 270 285 305 328 330 328 327 325 323 318 313 311 311 312 314 314 316
218 214 210 213 217 211 202 198 201 212 209 208 212 209 204 211 208 205 214 236 278 287 273 262 290 255 259 265 292 321 316 318 318 318 316 317 310 306 305 306 308 309 311
218 208 205 207 213 206 197 189 202 212 205 207 210 210 210 217 216 219 219 218 222 262 273 254 264 272 278 278 288 293 290 305 312 312 312 311 309 302 301 303 303 305 309
209 201 208 206 208 208 197 182 198 210 200 217 213 211 223 222 223 223 220 227 225 231 260 258 245 257 278 288 294 292 287 307 308 309 309 308 307 303 300 301 301 304 307
197 199 209 202 203 206 203 190 200 198 201 216 225 224 240 231 223 229 228 229 232 224 249 270 256 264 262 273 297 295 290 286 290 303 307 309 310 310 303 300 301 303 304
202 203 199 196 201 205 204 199 202 205 209 220 225 223 243 244 240 238 231 238 239 231 233 261 273 265 257 268 280 289 301 299 287 301 307 310 313 312 305 299 300 303 307
196 192 190 197 205 205 205 206 206 213 215 224 227 226 237 233 245 249 244 246 246 245 231 244 267 263 262 280 287 289 292 293 296 301 307 311 315 317 314 308 302 305 309
177 180 186 198 208 209 209 209 214 217 216 229 237 237 238 231 235 243 249 246 241 239 234 237 257 264 264 275 267 283 298 296 294 302 306 306 308 317 319 318 313 309 309
171 170 168 182 202 213 208 200 208 206 205 225 247 251 250 251 253 253 250 242 230 236 238 245 255 261 258 259 260 260 277 296 289 287 298 300 302 302 306 308 312 312 315
136 135 155 167 219 255 252 252 234 197 202 212 244 261 263 266 277 283 279 274 261 241 239 243 250 251 252 247 251 258 267 294 299 299 310 299 298 290 292 289 306 313 315
122 125 144 142 246 264 277 274 273 227 205 218 233 253 275 276 287 268 287 295 289 277 255 243 246 251 248 238 238 252 254 261 267 280 299 292 294 289 291 300 307 310 317
124 138 183 190 223 275 295 292 291 250 214 231 235 236 247 261 259 256 257 274 268 268 264 250 241 251 251 241 229 235 241 261 267 268 253 282 296 290 299 297 301 311 318
134 169 192 200 224 274 287 291 304 204 223 247 250 246 253 260 268 273 259 262 270 268 275 264 260 263 270 270 256 238 241 265 284 283 243 261 291 299 297 291 297 313 321
165 169 255 237 234 256 279 296 303 211 240 266 271 263 267 273 277 281 250 239 259 267 260 277 286 294 288 279 277 244 227 245 265 279 259 247 286 316 313 294 291 296 305